Regional Weather Roundup
Issued by NWS

Home | Current Version | Previous Version | Graphics & Text | Print | Product List | Glossary Off
Versions: 1 2 3 4 5 6 7 8 9 10 11 12 13 14 15 16 17 18 19 20 21 22 23 24 25 26 27 28 29 30 31 32 33 34 35 36 37 38 39 40 41 42 43 44 45 46 47 48 49 50

000
ASUS43 KTOP 050108
RWRKS

WEATHER ROUNDUP FOR KANSAS
NATIONAL WEATHER SERVICE GOODLAND KS
700 PM CST WED MAR 04 2015

NOTE:  "FAIR" INDICATES FEW OR NO CLOUDS BELOW 12,000 FEET WITH NO
SIGNIFICANT WEATHER AND/OR OBSTRUCTIONS TO VISIBILITY.

KSZ001>006-013>018-027>032-041>047-050200-
NORTHWEST KANSAS

CITY           SKY/WX    TMP DP  RH WIND       PRES   REMARKS
GOODLAND       CLEAR     21   7  54 N5        30.24R
HAYS           CLEAR     25   1  36 N5        30.32R
HILL CITY      CLEAR     23   2  40 N5        30.30R
RUSSELL        CLEAR     25   3  38 N7        30.32R
$$

KSZ061>065-074>080-084>089-050200-
SOUTHWEST KANSAS

CITY           SKY/WX    TMP DP  RH WIND       PRES   REMARKS
DODGE CITY     MOCLDY    28   4  35 N14       30.28R WCI  17
ELKHART          N/A     25   8  48 N7          N/A
GARDEN CITY    PTCLDY    24   9  52 N7        30.27R
GREAT BEND     PTCLDY    27   1  33 NE9       30.33R
LIBERAL        CLOUDY    25  12  58 N7        30.29R
PRATT          MOCLDY    27   9  46 NE9       30.31R
$$

KSZ066>073-081>083-090>101-050200-
SOUTHEAST KANSAS

CITY           SKY/WX    TMP DP  RH WIND       PRES   REMARKS
CHANUTE        CLOUDY    26   7  44 NE10      30.34S WCI  16
COFFEYVILLE    CLOUDY    26   9  48 N10       30.38R WCI  16
HUTCHINSON     MOCLDY    29   6  38 N6        30.34R
MEDICINE LODGE   N/A     28   9  44 NE8       30.30R
NEWTON         CLOUDY    27  10  50 NE6       30.35R
PARSONS        CLOUDY    27   9  46 N7        30.36R
WICHITA INTL   CLOUDY    29   9  43 NE9       30.33R
WICHITA JABRA  CLOUDY    26  10  50 NE6       30.33R
WICHITA MCCONL CLOUDY    28  10  46 NE8       30.33R
WINFIELD       CLOUDY    28  11  48 NE10      30.34R WCI  19
$$

KSZ007>012-019>026-033>040-048>060-102>105-050200-
NORTHEAST KANSAS

CITY           SKY/WX    TMP DP  RH WIND       PRES   REMARKS
CONCORDIA      MOCLDY    25   6  44 N6        30.33R
EMPORIA        CLOUDY    27   7  42 N7        30.34R
LAWRENCE       CLOUDY    28   7  41 NE5       30.34R
MANHATTAN      CLOUDY    29   8  41 N7        30.35S
MARYSVILLE     PTCLDY    27   5  39 N9        30.34S
OLATHE IND     CLOUDY    26   7  44 N5        30.34R
OLATHE EXE     CLOUDY    27   6  41 N5        30.33R
SALINA         CLOUDY    29   3  33 N12       30.36R WCI  19
TOPEKA BILLARD CLOUDY    29   8  41 N3        30.33S
TOPEKA FORBES  CLOUDY    30   6  36 N5        30.32S
$$



USA.gov is the U.S. government's official web portal to all federal, state and local government web resources and services.